This is the latest recevied weather packets stored in our database for station/object KD8PH. If no packets are shown the sender has not sent any weather packets the latest 10 day(s).
| Time | Temp. | Humidity | Pressure | Rain* | Wind** | Luminosity | Snow |
|---|---|---|---|---|---|---|---|
| 1777310140 | 22.78° C | 74% | 1016.1 hPa | 0 mm | - | - | - |
| 1777309546 | 22.78° C | 72% | 1016.2 hPa | 0 mm | - | - | - |
| 1777308960 | 22.78° C | 71% | 1016.2 hPa | 0 mm | - | - | - |
| 1777308342 | 22.22° C | 72% | 1016.3 hPa | 0 mm | - | - | - |
| 1777307740 | 22.22° C | 73% | 1016.4 hPa | 0 mm | - | - | - |
| 1777307156 | 21.67° C | 74% | 1016.4 hPa | 0 mm | - | - | - |
| 1777306545 | 21.67° C | 73% | 1016.5 hPa | 0 mm | - | - | - |
| 1777305941 | 21.67° C | 73% | 1016.7 hPa | 0 mm | - | - | - |
| 1777305337 | 21.11° C | 74% | 1016.8 hPa | 0 mm | - | - | - |
| 1777304736 | 21.11° C | 77% | 1016.9 hPa | 0 mm | - | - | - |
| 1777304149 | 20.56° C | 76% | 1017 hPa | 0 mm | - | - | - |
| 1777303538 | 20.56° C | 75% | 1017 hPa | 0 mm | - | - | - |
| 1777302938 | 20° C | 78% | 1016.9 hPa | 0 mm | - | - | - |
| 1777302338 | 20° C | 78% | 1017 hPa | 0 mm | - | - | - |
| 1777301748 | 20° C | 78% | 1017.1 hPa | 0 mm | - | - | - |
| 1777301140 | 20° C | 78% | 1017 hPa | 0 mm | - | - | - |
| 1777300551 | 19.44° C | 77% | 1016.9 hPa | 0 mm | - | - | - |
| 1777299944 | 19.44° C | 78% | 1016.9 hPa | 0 mm | - | - | - |
| 1777299342 | 19.44° C | 80% | 1016.8 hPa | 0 mm | - | - | - |
| 1777298747 | 19.44° C | 81% | 1016.9 hPa | 0 mm | - | - | - |
| 1777298140 | 19.44° C | 79% | 1016.9 hPa | 0 mm | - | - | - |
| 1777297543 | 18.89° C | 80% | 1016.7 hPa | 0 mm | - | - | - |
| 1777296938 | 18.89° C | 81% | 1016.7 hPa | 0 mm | - | - | - |
| 1777296337 | 18.89° C | 81% | 1016.8 hPa | 0 mm | - | - | - |
| 1777295737 | 18.89° C | 80% | 1016.9 hPa | 0 mm | - | - | - |
* Rain latest hour (hover to see other rain measurements)
** Current wind speed in m/s (hover to see current wind gust speed)